This demonstration page uses our WeatherBlox Daily Observations layout. Learn more.

Left ArrowRight Arrow

Hourly Observations for May 22, 2018

Temp ( °F °C ) Dew Point ( °F °C ) Humidity (%) Winds ( mph kmh ) Pressure ( in mb ) Visibility ( mi km ) Precip ( " mm )
12:56 am 00:56 Partly Cloudy 64 17.8 58 14.4 81 81 SE 14 22 29.92 1013 10 16 0.00 0.00
1:56 am 01:56 Mostly Cloudy 63 17.2 57 13.9 81 81 SSE 12 19 29.92 1013 10 16 0.00 0.00
2:56 am 02:56 Mostly Cloudy 63 17.2 58 14.4 84 84 SE 13 20 29.89 1012 10 16 0.00 0.00
3:56 am 03:56 Clear 62 16.7 58 14.4 86 86 SSE 16 26 29.88 1012 10 16 0.00 0.00
4:56 am 04:56 Clear 62 16.7 58 14.4 86 86 SSE 15 24 29.88 1012 10 16 0.00 0.00
5:56 am 05:56 Clear 61 16.1 58 14.4 90 90 S 12 19 29.89 1012 10 16 0.00 0.00
6:04 am 06:04 Mostly Clear 61 16 57 14 88 88 S 14 22 29.88 1012 10 16 0.00 0.00
6:56 am 06:56 Sunny 62 16.7 59 15 90 90 SSW 10 17 29.90 1013 10 16 0.00 0.00
7:08 am 07:08 Mostly Sunny 63 17 59 15 88 88 S 10 17 29.88 1012 10 16 0.00 0.00
7:56 am 07:56 Sunny 65 18.3 60 15.6 84 84 SSW 13 20 29.91 1013 10 16 0.00 0.00
8:56 am 08:56 Sunny 68 20 61 16.1 78 78 SSW 15 24 29.91 1013 10 16 0.00 0.00
9:56 am 09:56 Sunny 71 21.7 62 16.7 73 73 SW 16 26 29.92 1013 10 16 0.00 0.00
10:56 am 10:56 Sunny 74 23.3 63 17.2 69 69 SW 9 15 29.92 1013 10 16 0.00 0.00
11:56 am 11:56 Sunny 78 25.6 64 17.8 62 62 S 13 20 29.93 1014 10 16 0.00 0.00
12:56 pm 12:56 Sunny 79 26.1 64 17.8 60 60 SSW 10 17 29.92 1013 10 16 0.00 0.00
1:38 pm 13:38 Mostly Sunny 81 27 64 18 58 58 S 9 15 29.83 1010 10 16 0.00 0.00
1:56 pm 13:56 Mostly Sunny 81 27.2 64 17.8 57 57 SSE 8 13 29.91 1013 10 16 0.00 0.00
2:56 pm 14:56 Sunny 84 28.9 63 17.2 49 49 S 16 26 29.88 1012 10 16 0.00 0.00
3:56 pm 15:56 Sunny 85 29.4 62 16.7 46 46 S 12 19 29.87 1011 10 16 0.00 0.00
4:56 pm 16:56 Mostly Sunny 85 29.4 60 15.6 43 43 S 15 24 29.85 1011 10 16 0.00 0.00
5:56 pm 17:56 Mostly Sunny 84 28.9 59 15 43 43 S 18 30 29.85 1011 10 16 0.00 0.00
6:56 pm 18:56 Mostly Sunny 84 28.9 61 16.1 46 46 SSE 23 37 29.84 1011 10 16 0.00 0.00
7:52 pm 19:52 Mostly Sunny 81 27 61 16 51 51 SSE 15 24 29.77 1008 10 16 0.00 0.00
7:56 pm 19:56 Sunny 80 26.7 61 16.1 52 52 SSE 15 24 29.85 1011 10 16 0.00 0.00
8:41 pm 20:41 Mostly Sunny 79 26 63 17 58 58 SE 15 24 29.80 1009 10 16 0.00 0.00
8:56 pm 20:56 Clear 77 25 63 17.2 62 62 SSE 15 24 29.86 1011 10 16 0.00 0.00
9:56 pm 21:56 Clear 76 24.4 62 16.7 62 62 SSE 16 26 29.88 1012 10 16 0.00 0.00
10:56 pm 22:56 Clear 74 23.3 62 16.7 67 67 SSE 17 28 29.90 1013 10 16 0.00 0.00
11:56 pm 23:56 Clear 73 22.8 63 17.2 71 71 S 18 30 29.90 1012 10 16 0.00 0.00

Powered by AerisWeather